Regional Weather Roundup
Issued by NWS

Home | Current Version | Previous Version | Graphics & Text | Print | Product List | Glossary On
Versions: 1 2 3 4 5 6 7 8 9 10 11 12 13 14 15 16 17 18 19 20 21 22 23 24 25 26 27 28 29 30 31 32 33 34 35 36 37 38 39 40 41 42 43 44 45 46 47 48 49
000
ASUS45 KBOI 030010
RWRID

IDAHO REGIONAL WEATHER ROUNDUP
NATIONAL WEATHER SERVICE BOISE ID
600 PM MDT WED SEP 02 2015

NOTE: "FAIR" INDICATES FEW OR NO CLOUDS BELOW 12000 FEET
WITH NO SIGNIFICANT WEATHER AND/OR OBSTRUCTIONS TO VISIBILITY

IDZ012-014-030100-
SOUTHWEST IDAHO


CITY           SKY/WX    TMP DP  RH WIND       PRES   REMARKS
BOISE          PTSUNNY   82  38  20 NW12      29.73F
CALDWELL       PTSUNNY   82  43  24 NW12      29.75S
MOUNTAIN HOME  SUNNY     88  36  15 N12       29.72F
$$

IDZ016-017-030100-
SOUTHCENTRAL IDAHO


CITY           SKY/WX    TMP DP  RH WIND       PRES   REMARKS
BURLEY         SUNNY     85  35  16 N6        29.80F
JEROME         SUNNY     83  43  24 CALM      29.80F
TWIN FALLS     SUNNY     86  31  13 N7        29.81F
$$

IDZ019>023-030100-
SOUTHEAST IDAHO


CITY           SKY/WX    TMP DP  RH WIND       PRES   REMARKS
IDAHO FALLS    MOSUNNY   85  37  18 SW13      29.85F
POCATELLO      MOSUNNY   88  33  14 NW9       29.83F
REXBURG        SUNNY     85  33  15 SW17G23   29.86F
$$

IDZ006-010-011-018-031-032-030100-
CENTRAL IDAHO MOUNTAINS


CITY           SKY/WX    TMP DP  RH WIND       PRES   REMARKS
MCCALL         PTSUNNY   70  35  27 S15       29.88S
HAILEY         MOSUNNY   79  34  19 W14       29.91F
STANLEY          N/A     72  30  21 VRB3G23   29.95F
SALMON         MOSUNNY   79  37  22 W13       29.71R
CHALLIS        MOSUNNY   81  26  13 SW8       29.82S
$$

IDZ002-004-006-007-026-030100-
NORTHERN IDAHO


CITY           SKY/WX    TMP DP  RH WIND       PRES   REMARKS
LEWISTON       CLOUDY    69  43  38 NW10      29.87R
LOWELL           N/A     73  46  38 CALM      29.84R
COEUR D`ALENE  PTSUNNY   64  45  48 S17       29.84S
MULLAN PASS    LGT RAIN  41  39  93 VRB3      29.96F
$$


USA.gov is the U.S. government's official web portal to all federal, state and local government web resources and services.